Regional Weather Roundup
Issued by NWS

Home | Current Version | Previous Version | Graphics & Text | Print | Product List | Glossary On
Versions: 1 2 3 4 5 6 7 8 9 10 11 12 13 14 15 16 17 18 19 20 21 22 23 24 25 26 27 28 29 30 31 32 33 34 35 36 37 38 39 40 41 42 43 44 45 46 47 48 49 50
000
ASUS45 KBOI 181610
RWRID

IDAHO REGIONAL WEATHER ROUNDUP
NATIONAL WEATHER SERVICE BOISE ID
900 AM MST WED JAN 18 2017

NOTE: "FAIR" INDICATES FEW OR NO CLOUDS BELOW 12000 FEET
WITH NO SIGNIFICANT WEATHER AND/OR OBSTRUCTIONS TO VISIBILITY

IDZ012-014-181700-
SOUTHWEST IDAHO


CITY           SKY/WX    TMP DP  RH WIND       PRES   REMARKS
BOISE          LGT SNOW  17  13  84 NE5       30.03R FOG     WCI  10
CALDWELL       CLOUDY    13   8  81 CALM      30.07F HAZE
MOUNTAIN HOME  LGT SNOW  22  19  85 SE23      30.02S WCI   6
$$

IDZ016-017-181700-
SOUTHCENTRAL IDAHO


CITY           SKY/WX    TMP DP  RH WIND       PRES   REMARKS
BURLEY         CLEAR     21  12  68 NE5       30.00F WCI  15
JEROME         PTCLDY    16   9  74 NE23      30.02S WCI  -2
TWIN FALLS     PTCLDY    16  11  80 E6        30.02R WCI   7
$$

IDZ019>023-181700-
SOUTHEAST IDAHO


CITY           SKY/WX    TMP DP  RH WIND       PRES   REMARKS
IDAHO FALLS    CLOUDY    -1  -3  91 N8        30.09F WCI -15
POCATELLO      CLOUDY     6   1  80 NE6       30.07F WCI  -4
REXBURG        CLOUDY     2  -2  83 NE3       30.08F
$$

IDZ006-010-011-018-031-032-181700-
CENTRAL IDAHO MOUNTAINS


CITY           SKY/WX    TMP DP  RH WIND       PRES   REMARKS
MCCALL         SNOW      24  20  84 CALM      29.89F VSB 1/2
HAILEY         MOCLDY    18  10  73 NW8       30.03S WCI   7
STANLEY          N/A     13  10  88 CALM      29.94F
SALMON         CLOUDY     0  -4  85 CALM      30.02F
CHALLIS        CLOUDY     2  -2  83 NE5       29.99F WCI  -8
$$

IDZ002-004-006-007-026-181700-
NORTHERN IDAHO


CITY           SKY/WX    TMP DP  RH WIND       PRES   REMARKS
LEWISTON       CLOUDY    36  30  79 E7        29.76R WCI  30
LOWELL           N/A     30  28  92 N6        29.83F WCI  24
COEUR D`ALENE  RAIN      35  34  96 VRB5      29.68S WCI  31
MULLAN PASS    SNOW      29  28  96 VRB6      29.66S VSB 1/4 WCI  23
$$



USA.gov is the U.S. government's official web portal to all federal, state and local government web resources and services.